Regional Weather Roundup
Issued by NWS Grand Forks, ND

Home | Current Version | Previous Version | Graphics & Text | Print | Product List | Glossary On
Versions: 1 2 3 4 5 6 7 8 9 10 11 12 13 14 15 16 17 18 19 20 21 22 23 24 25 26 27 28 29 30 31 32 33 34 35 36 37 38 39 40 41 42 43 44 45 46 47 48 49 50
000
ASUS43 KFGF 050010
RWRFGF
PRAIRIE TO PINES  WEATHER ROUNDUP
NATIONAL WEATHER SERVICE EASTERN NORTH DAKOTA/GRAND FORKS ND
700 PM CDT WED MAY 04 2016

 **SATELLITE DATA USED TO AUGMENT SKY COVER AT AUTOMATED STATIONS**
 *****  WEATHER ACROSS EASTERN NORTH DAKOTA  *****

CITY           SKY/WX    TMP DP  RH WIND       PRES   REMARKS
GRAND FORKS    MOSUNNY   70  29  21 E5        29.95F
6HR MIN TEMP:  61; 6HR MAX TEMP:  72;

GRAND FRKS AFB MOSUNNY   70  28  21 SE2       29.96F
DEVILS LAKE    CLOUDY    71  41  33 SE7       29.94F
6HR MIN TEMP:  61; 6HR MAX TEMP:  72;

FARGO          SUNNY     70  24  17 N5        29.97F
WAHPETON ARPT  CLEAR     68  21  17 N6        29.98F
$$

 ***** WEATHER ACROSS CENTRAL AND WESTERN NORTH DAKOTA  *****

CITY           SKY/WX    TMP DP  RH WIND       PRES   REMARKS
BISMARCK       SUNNY     78  46  32 S9        29.95F
6HR MIN TEMP:  72; 6HR MAX TEMP:  80;

MINOT          SUNNY     86  35  16 SW10      29.88F
6HR MIN TEMP:  82; 6HR MAX TEMP:  88;

JAMESTOWN      SUNNY     73  36  25 W5        29.97F
6HR MIN TEMP:  63; 6HR MAX TEMP:  74;

MINOT AFB      SUNNY     83  39  20 SW10      29.86F
GARRISON         N/A     81  39  22 S8        29.91F
WILLISTON      SUNNY     84  36  18 SW13G22   29.88F
6HR MIN TEMP:  80; 6HR MAX TEMP:  85;

DICKINSON      MOSUNNY   78  37  22 S14       29.94F
6HR MIN TEMP:  75; 6HR MAX TEMP:  80;

HETTINGER      SUNNY     76  41  28 S10       30.00F
6HR MIN TEMP:  73; 6HR MAX TEMP:  79;

$$

 *****  OTHER AIRPORT OBSERVATIONS IN OUR AREA  *****

CITY           SKY/WX    TMP DP  RH WIND       PRES   REMARKS
WALHALLA       FAIR      73  36  25 SW8       29.91F
GRAFTON AIRPOR FAIR      72  32  23 S7        29.96F
VALLEY CITY AR FAIR      68  32  26 CALM      30.00F
CANDO          FAIR      75  36  23 S10       29.94F
CAVALIER APRT  FAIR      73  34  23 S9        29.92F
GWINNER        FAIR      72  28  20 NW6       29.99F
ROLLA          FAIR      75  36  23 S9        29.92F
 ***** THE ABOVE OBSERVATIONS ARE NON NWS ARE NOT QUALITY
       CONTROLLED AND MAY MIS-REPORT RAIN FOR SNOW...
$$

  *****  WEATHER ACROSS NORTHERN MINNESOTA  *****

CITY           SKY/WX    TMP DP  RH WIND       PRES   REMARKS
FLAG ISLAND    CLOUDY    50  39  66 S3        29.97R
WARROAD        SUNNY     55  34  44 E6        29.97F
ROSEAU         SUNNY     66  28  24 SW5       29.96F
HALLOCK        MOSUNNY   70  18  13 S5        29.94F
THF RVR FALLS  MOSUNNY   66  28  24 W7        29.98F
6HR MIN TEMP:  59; 6HR MAX TEMP:  66;

BAUDETTE       SUNNY     60  22  23 N6        29.98F
6HR MIN TEMP:  54; 6HR MAX TEMP:  61;

WASKISH        SUNNY     61  19  20 N7        29.98F
CROOKSTON      SUNNY     70  28  21 NW3       29.97F
STEPHEN NDAWN    N/A     68  28  22 SW1         N/A
GREENBUSH NDAW   N/A     64  36  34 W3          N/A
$$
  *****  WEATHER ACROSS CENTRAL AND WEST MINNESOTA  *****

CITY           SKY/WX    TMP DP  RH WIND       PRES   REMARKS
FOSSTON        SUNNY     66  23  19 N6        29.99S
BEMIDJI        SUNNY     61  22  22 N7        29.98F
PARK RAPIDS    SUNNY     66  24  20 N7        29.96F
6HR MIN TEMP:  60; 6HR MAX TEMP:  68;

ELBOW LAKE     FAIR      66  32  28 N9        29.99S
6HR MIN TEMP:  60; 6HR MAX TEMP:  66;

WADENA         SUNNY     66  28  24 NW7       29.97S
DETROIT LAKES  SUNNY     64  27  24 N9        29.99F
MOORHEAD       SUNNY     68  27  21 NW7       29.98F
FERGUS FALLS   SUNNY     66  30  26 N9        29.95F
MORRIS MN      SUNNY     66  30  26 N13G18    29.98S
STAPLES        SUNNY     64  19  17 N7        29.97S
$$
  *****  WEATHER ELSEWHERE ACROSS MINNESOTA  *****

CITY           SKY/WX    TMP DP  RH WIND       PRES   REMARKS
DULUTH         SUNNY     52  26  36 SE10      29.96S
6HR MIN TEMP:  52; 6HR MAX TEMP:  62;

INTRNTL FALLS  SUNNY     60  19  20 E3        29.97S
6HR MIN TEMP:  55; 6HR MAX TEMP:  61;

ELY            SUNNY     57  16  19 N3        29.96S
CLOQUET        SUNNY     55  23  28 E7        29.96R
WHEATON        SUNNY     70  34  26 NW9G16    30.00S
BRAINERD       SUNNY     62  22  21 N12       29.97F
6HR MIN TEMP:  58; 6HR MAX TEMP:  64;

HIBBING        SUNNY     59  17  19 N12       29.96R
6HR MIN TEMP:  55; 6HR MAX TEMP:  61;

ALEXANDRIA     SUNNY     64  26  23 N8        29.99S
6HR MIN TEMP:  62; 6HR MAX TEMP:  67;

SAINT CLOUD    SUNNY     65  22  19 N10       29.95F
6HR MIN TEMP:  62; 6HR MAX TEMP:  66;

MINNEAPOLIS    SUNNY     65  24  21 N10       29.94S
6HR MIN TEMP:  63; 6HR MAX TEMP:  66;

$$

  *****  WEATHER ACROSS SOUTH DAKOTA  *****

CITY           SKY/WX    TMP DP  RH WIND       PRES   REMARKS
SIOUX FALLS    MOSUNNY   66  32  28 N13       29.99F
6HR MIN TEMP:  63; 6HR MAX TEMP:  69;

BROOKINGS      NOT AVBL
WATERTOWN      SUNNY     67  30  25 N10       30.01S
6HR MIN TEMP:  63; 6HR MAX TEMP:  68;

HURON          SUNNY     71  36  27 NW9       30.01F
6HR MIN TEMP:  64; 6HR MAX TEMP:  72;

SISSETON         N/A     70  26  19 N8        29.98F
ABERDEEN       SUNNY     74  35  24 N6        30.00F
6HR MIN TEMP:  65; 6HR MAX TEMP:  75;

MITCHELL       SUNNY     69  36  29 NW9       30.02F
PIERRE         SUNNY     73  38  27 W3        30.01F HAZE
6HR MIN TEMP:  66; 6HR MAX TEMP:  75;

MOBRIDGE       SUNNY     75  46  35 SE12      29.98F
RAPID CITY     SUNNY     73  41  31 S15       30.03F
6HR MIN TEMP:  73; 6HR MAX TEMP:  76;

$$

  *****  SOME WEATHER IN NEARBY STATES *****

CITY           SKY/WX    TMP DP  RH WIND       PRES   REMARKS
GLASGOW MT     SUNNY     84  37  18 S7        29.83F
6HR MIN TEMP:  80; 6HR MAX TEMP:  85; 6HR PCP: TRACE;

GREAT FALLS MT SUNNY     79  32  18 NW12      29.88F
6HR MIN TEMP:  76; 6HR MAX TEMP:  81;

CHEYENNE WY    SUNNY     69  34  27 SE8       30.16F
6HR MIN TEMP:  66; 6HR MAX TEMP:  73;

SCOTTSBLUFF NE SUNNY     75  39  27 E8        30.08F
6HR MIN TEMP:  71; 6HR MAX TEMP:  76;

OMAHA NE       SUNNY     68  39  34 N14       29.99F
6HR MIN TEMP:  65; 6HR MAX TEMP:  70;

DES MOINES IA  MOSUNNY   67  31  26 NW14G21   29.94S
6HR MIN TEMP:  63; 6HR MAX TEMP:  68;

DAVENPORT IA   MOSUNNY   61  33  35 N15       29.86S
6HR MIN TEMP:  58; 6HR MAX TEMP:  64;

CHICAGO IL     MOCLDY    45  36  70 NE15      29.83R
6HR MIN TEMP:  45; 6HR MAX TEMP:  51;

EAU CLAIRE WI  SUNNY     61  18  18 N14       29.92R
6HR MIN TEMP:  58; 6HR MAX TEMP:  64;

LA CROSSE WI   SUNNY     63  22  20 N16       29.89R
6HR MIN TEMP:  62; 6HR MAX TEMP:  66;

$$

  *****  SOME NATIONAL WEATHER *****

CITY           SKY/WX    TMP DP  RH WIND       PRES   REMARKS
LA GUARDIA NY  CLOUDY    52  49  89 NE13      29.74R
6HR MIN TEMP:  50; 6HR MAX TEMP:  52; 6HR PCP:  0.02;

RALEIGH NC     PTCLDY    66  48  52 CALM      29.61F
6HR MIN TEMP:  66; 6HR MAX TEMP:  74;

ATLANTA GA     PTCLDY    66  43  43 W9        29.70F
6HR MIN TEMP:  66; 6HR MAX TEMP:  72;

NEW ORLEANS LA CLEAR     75  49  39 NW10      29.87S
6HR MIN TEMP:  74; 6HR MAX TEMP:  78;

OKLAHOMA CITY  SUNNY     76  43  30 N15       30.00S
6HR MIN TEMP:  76; 6HR MAX TEMP:  82;

ALBUQUERQUE NM MOSUNNY   76  15  10 SW7       30.17F
6HR MIN TEMP:  70; 6HR MAX TEMP:  78;

SALT LAKE CITY PTSUNNY   81  28  14 S5G20     29.95F
6HR MIN TEMP:  76; 6HR MAX TEMP:  82;

LOS ANGELES CA MOSUNNY   63  52  67 W13       29.90F
6HR MIN TEMP:  59; 6HR MAX TEMP:  65;

BOISE ID       CLOUDY   C1F1C2F2C3F3C4F4C5F5C6F6C7F7C8F8C9F9CaFaCbFbCcFcCd!



USA.gov is the U.S. government's official web portal to all federal, state and local government web resources and services.